User: anonymous   Login
Location: Fort Wayne
(41.1310°N, 85.1290°W)
Time: 14:37:54
(UTC-04:00)
Language:

Cosmos 2227 Rocket - Orbit

View from above orbital plane
View from above orbital plane
View from above satellite
View from above satellite

Ground track
Ground track

The orbit data is extracted from the following two-line orbital elements,

1 22285U 92093B   16178.51125662 -.00000175  00000-0 -66063-4 0  9993
2 22285  71.0208 238.3937 0006109 295.7693  64.2799 14.14993424212228
Epoch (UTC): 26 June 2016 12:16:12
Eccentricity: 0.0006109
inclination: 71.0208°
perigee height: 838 km
apogee height: 847 km
right ascension of ascending node: 238.3937°
argument of perigee: 295.7693°
revolutions per day: 14.14993424
mean anomaly at epoch: 64.2799°
orbit number at epoch: 21222

The dashed part of the orbit path shows where the satellite is in the earth's shadow,  

DLR